Year,Month,Day,Hour,Minute,Value (Times are PST for temperature in C)
2020,04,15,12,39,15.80
2020,04,15,12,40,15.90
2020,04,15,12,41,16.00
2020,04,15,12,42,16.10
2020,04,15,12,43,16.10
2020,04,15,12,44,15.90
2020,04,15,12,45,15.80
2020,04,15,12,46,15.80
2020,04,15,12,47,15.80
2020,04,15,12,48,15.80
2020,04,15,12,49,15.80
2020,04,15,12,50,15.90
2020,04,15,12,51,16.00
2020,04,15,12,52,16.10
2020,04,15,12,53,16.10
2020,04,15,12,54,16.10
2020,04,15,12,55,16.00
2020,04,15,12,56,15.80
2020,04,15,12,57,15.60
2020,04,15,12,58,15.50
2020,04,15,12,59,15.50
2020,04,15,13,00,15.30
2020,04,15,13,01,15.20
2020,04,15,13,02,15.10
2020,04,15,13,03,15.00
2020,04,15,13,04,15.00
2020,04,15,13,05,14.90
2020,04,15,13,06,14.90
2020,04,15,13,07,14.90
2020,04,15,13,08,14.80
2020,04,15,13,09,14.80
2020,04,15,13,10,14.80
2020,04,15,13,11,14.80
2020,04,15,13,12,14.70
2020,04,15,13,13,14.70
2020,04,15,13,14,14.70
2020,04,15,13,15,14.50
2020,04,15,13,16,14.50
2020,04,15,13,17,14.60
2020,04,15,13,18,14.60
2020,04,15,13,19,14.50
2020,04,15,13,20,14.50
2020,04,15,13,21,14.40
2020,04,15,13,22,14.30
2020,04,15,13,23,14.30
2020,04,15,13,24,14.20
2020,04,15,13,25,14.10
2020,04,15,13,26,13.90
2020,04,15,13,27,13.90
2020,04,15,13,28,14.00
2020,04,15,13,29,14.10
2020,04,15,13,30,14.20
2020,04,15,13,31,14.20
2020,04,15,13,32,14.20
2020,04,15,13,33,14.20
2020,04,15,13,34,14.20
2020,04,15,13,35,14.20
2020,04,15,13,36,14.40
2020,04,15,13,37,14.60
2020,04,15,13,38,14.80
2020,04,15,13,39,15.00
2020,04,15,13,40,15.20
2020,04,15,13,41,15.30
2020,04,15,13,42,15.40
2020,04,15,13,43,15.50
2020,04,15,13,44,15.60
2020,04,15,13,45,15.60
2020,04,15,13,46,15.50
2020,04,15,13,47,15.60
2020,04,15,13,48,15.60
2020,04,15,13,49,15.70
2020,04,15,13,50,15.90
2020,04,15,13,51,16.00
2020,04,15,13,52,16.10
2020,04,15,13,53,16.30
2020,04,15,13,54,16.40
2020,04,15,13,55,16.30
2020,04,15,13,56,16.10
2020,04,15,13,57,15.90
2020,04,15,13,58,15.80
2020,04,15,13,59,15.80
2020,04,15,14,00,15.90
2020,04,15,14,01,15.90
2020,04,15,14,02,16.00
2020,04,15,14,03,16.10
2020,04,15,14,04,16.30
2020,04,15,14,05,16.40
2020,04,15,14,06,16.60
2020,04,15,14,07,16.70
2020,04,15,14,08,16.80
2020,04,15,14,09,16.90
2020,04,15,14,10,16.90
2020,04,15,14,11,16.90
2020,04,15,14,12,16.90
2020,04,15,14,13,16.90
2020,04,15,14,14,16.90
2020,04,15,14,15,16.90
2020,04,15,14,16,17.00
2020,04,15,14,17,17.10
2020,04,15,14,18,17.10
2020,04,15,14,19,17.20
2020,04,15,14,20,17.30
2020,04,15,14,21,17.30
2020,04,15,14,22,17.40
2020,04,15,14,23,17.40
2020,04,15,14,24,17.40
2020,04,15,14,25,17.30
2020,04,15,14,26,17.20
2020,04,15,14,27,17.10
2020,04,15,14,28,17.10
2020,04,15,14,29,17.20
2020,04,15,14,30,17.20
2020,04,15,14,31,17.30
2020,04,15,14,32,17.30
2020,04,15,14,33,17.30
2020,04,15,14,34,17.30
2020,04,15,14,35,17.30
2020,04,15,14,36,17.30
2020,04,15,14,37,17.20
2020,04,15,14,38,17.20
2020,04,15,14,39,17.00
2020,04,15,14,40,17.00
2020,04,15,14,41,17.10
2020,04,15,14,42,17.20
2020,04,15,14,43,17.20
2020,04,15,14,44,17.10
2020,04,15,14,45,17.10
2020,04,15,14,46,17.20
2020,04,15,14,47,17.30
2020,04,15,14,48,17.40
2020,04,15,14,49,17.50
2020,04,15,14,50,17.50
2020,04,15,14,51,17.40
2020,04,15,14,52,17.40
2020,04,15,14,53,17.30
2020,04,15,14,54,17.30
2020,04,15,14,55,17.20
2020,04,15,14,56,17.20
2020,04,15,14,57,17.20
2020,04,15,14,58,17.30
2020,04,15,14,59,17.40
2020,04,15,15,00,17.50
2020,04,15,15,01,17.60
2020,04,15,15,02,17.70
2020,04,15,15,03,17.70
2020,04,15,15,04,17.70
2020,04,15,15,05,17.70
2020,04,15,15,06,17.80
2020,04,15,15,07,17.80
2020,04,15,15,08,17.90
2020,04,15,15,09,17.90
2020,04,15,15,10,18.00
2020,04,15,15,11,17.90
2020,04,15,15,12,17.80
2020,04,15,15,13,17.80
2020,04,15,15,14,17.80
2020,04,15,15,15,17.80
2020,04,15,15,16,17.90
2020,04,15,15,17,17.80
2020,04,15,15,18,17.90
2020,04,15,15,19,17.90
2020,04,15,15,20,17.90
2020,04,15,15,21,17.80
2020,04,15,15,22,17.80
2020,04,15,15,23,17.80
2020,04,15,15,24,17.80
2020,04,15,15,25,17.80
2020,04,15,15,26,17.80
2020,04,15,15,27,17.70
2020,04,15,15,28,17.70
2020,04,15,15,29,17.60
2020,04,15,15,30,17.60
2020,04,15,15,31,17.50
2020,04,15,15,32,17.60
2020,04,15,15,33,17.60
2020,04,15,15,34,17.70
2020,04,15,15,35,17.80
2020,04,15,15,36,17.80
2020,04,15,15,37,17.90
2020,04,15,15,38,17.90
2020,04,15,15,39,18.00
2020,04,15,15,40,18.10
2020,04,15,15,41,18.10
2020,04,15,15,42,18.00
2020,04,15,15,43,18.00
2020,04,15,15,44,17.90
2020,04,15,15,45,17.80
2020,04,15,15,46,17.80
2020,04,15,15,47,17.90
2020,04,15,15,48,18.00
2020,04,15,15,49,18.00
2020,04,15,15,50,18.00
2020,04,15,15,51,17.90
2020,04,15,15,52,18.00
2020,04,15,15,53,17.90
2020,04,15,15,54,17.90
2020,04,15,15,55,17.80
2020,04,15,15,56,17.90
2020,04,15,15,57,17.90
2020,04,15,15,58,17.90
2020,04,15,15,59,17.90
2020,04,15,16,00,18.10
2020,04,15,16,01,18.20
2020,04,15,16,02,18.20
2020,04,15,16,03,18.30
2020,04,15,16,04,18.30
2020,04,15,16,05,18.30
2020,04,15,16,06,18.30
2020,04,15,16,07,18.30
2020,04,15,16,08,18.30
2020,04,15,16,09,18.30
2020,04,15,16,10,18.30
2020,04,15,16,11,18.30
2020,04,15,16,12,18.30
2020,04,15,16,13,18.20
2020,04,15,16,14,18.20
2020,04,15,16,15,18.20
2020,04,15,16,16,18.10
2020,04,15,16,17,18.10
2020,04,15,16,18,18.10
2020,04,15,16,19,18.20
2020,04,15,16,20,18.20
2020,04,15,16,21,18.30
2020,04,15,16,22,18.20
2020,04,15,16,23,18.10
2020,04,15,16,24,18.10
2020,04,15,16,25,18.20
2020,04,15,16,26,18.20
2020,04,15,16,27,18.20
2020,04,15,16,28,18.20
2020,04,15,16,29,18.20
2020,04,15,16,30,18.20
2020,04,15,16,31,18.20
2020,04,15,16,32,18.10
2020,04,15,16,33,18.20
2020,04,15,16,34,18.20
2020,04,15,16,35,18.20
2020,04,15,16,36,18.20
2020,04,15,16,37,18.20
2020,04,15,16,38,18.20
2020,04,15,16,39,18.20
2020,04,15,16,40,18.10
2020,04,15,16,41,18.10
2020,04,15,16,42,18.10
2020,04,15,16,43,18.00
2020,04,15,16,44,17.90
2020,04,15,16,45,17.90
2020,04,15,16,46,17.80
2020,04,15,16,47,17.80
2020,04,15,16,48,17.80
2020,04,15,16,49,17.80
2020,04,15,16,50,17.90
2020,04,15,16,51,17.90
2020,04,15,16,52,17.90
2020,04,15,16,53,17.90
2020,04,15,16,54,17.90
2020,04,15,16,55,18.00
2020,04,15,16,56,18.00
2020,04,15,16,57,18.00
2020,04,15,16,58,18.00
2020,04,15,16,59,18.00
2020,04,15,17,00,18.00
2020,04,15,17,01,18.00
2020,04,15,17,02,18.00
2020,04,15,17,03,18.10
2020,04,15,17,04,18.10
2020,04,15,17,05,18.10
2020,04,15,17,06,18.10
2020,04,15,17,07,18.20
2020,04,15,17,08,18.20
2020,04,15,17,09,18.20
2020,04,15,17,10,18.30
2020,04,15,17,11,18.30
2020,04,15,17,12,18.30
2020,04,15,17,13,18.30
2020,04,15,17,14,18.20
2020,04,15,17,15,18.10
2020,04,15,17,16,18.10
2020,04,15,17,17,18.10
2020,04,15,17,18,18.10
2020,04,15,17,19,18.10
2020,04,15,17,20,18.20
2020,04,15,17,21,18.30
2020,04,15,17,22,18.40
2020,04,15,17,23,18.40
2020,04,15,17,24,18.40
2020,04,15,17,25,18.40
2020,04,15,17,26,18.40
2020,04,15,17,27,18.40
2020,04,15,17,28,18.40
2020,04,15,17,29,18.40
2020,04,15,17,30,18.40
2020,04,15,17,31,18.50
2020,04,15,17,32,18.40
2020,04,15,17,33,18.40
2020,04,15,17,34,18.30
2020,04,15,17,35,18.30
2020,04,15,17,36,18.20
2020,04,15,17,37,18.10
2020,04,15,17,38,18.10
2020,04,15,17,39,18.10
2020,04,15,17,40,18.20
2020,04,15,17,41,18.20
2020,04,15,17,42,18.30
2020,04,15,17,43,18.30
2020,04,15,17,44,18.30
2020,04,15,17,45,18.30
2020,04,15,17,46,18.20
2020,04,15,17,47,18.20
2020,04,15,17,48,18.20
2020,04,15,17,49,18.30
2020,04,15,17,50,18.30
2020,04,15,17,51,18.30
2020,04,15,17,52,18.30
2020,04,15,17,53,18.30
2020,04,15,17,54,18.30
2020,04,15,17,55,18.30
2020,04,15,17,56,18.30
2020,04,15,17,57,18.30
2020,04,15,17,58,18.40
2020,04,15,17,59,18.40
2020,04,15,18,00,18.40
2020,04,15,18,01,18.40
2020,04,15,18,02,18.40
2020,04,15,18,03,18.50
2020,04,15,18,04,18.50
2020,04,15,18,05,18.50
2020,04,15,18,06,18.40
2020,04,15,18,07,18.40
2020,04,15,18,08,18.40
2020,04,15,18,09,18.40
2020,04,15,18,10,18.40
2020,04,15,18,11,18.40
2020,04,15,18,12,18.30
2020,04,15,18,13,18.30
2020,04,15,18,14,18.20
2020,04,15,18,15,18.20
2020,04,15,18,16,18.20
2020,04,15,18,17,18.20
2020,04,15,18,18,18.20
2020,04,15,18,19,18.20
2020,04,15,18,20,18.20
2020,04,15,18,21,18.20
2020,04,15,18,22,18.20
2020,04,15,18,23,18.20
2020,04,15,18,24,18.10
2020,04,15,18,25,18.10
2020,04,15,18,26,18.10
2020,04,15,18,27,18.10
2020,04,15,18,28,18.10
2020,04,15,18,29,18.10
2020,04,15,18,30,18.10
2020,04,15,18,31,18.10
2020,04,15,18,32,18.00
2020,04,15,18,33,18.00
2020,04,15,18,34,18.00
2020,04,15,18,35,18.00
2020,04,15,18,36,18.00
2020,04,15,18,37,18.00
2020,04,15,18,38,17.90
2020,04,15,18,39,17.90
2020,04,15,18,40,17.90
2020,04,15,18,41,17.90
2020,04,15,18,42,17.90
2020,04,15,18,43,17.90
2020,04,15,18,44,17.80
2020,04,15,18,45,17.80
2020,04,15,18,46,17.80
2020,04,15,18,47,17.80
2020,04,15,18,48,17.80
2020,04,15,18,49,17.80
2020,04,15,18,50,17.80
2020,04,15,18,51,17.80
2020,04,15,18,52,17.70
2020,04,15,18,53,17.70
2020,04,15,18,54,17.70
2020,04,15,18,55,17.70
2020,04,15,18,56,17.70
2020,04,15,18,57,17.70
2020,04,15,18,58,17.70
2020,04,15,18,59,17.70
2020,04,15,19,00,17.70
2020,04,15,19,01,17.70
2020,04,15,19,02,17.70
2020,04,15,19,03,17.70
2020,04,15,19,04,17.60
2020,04,15,19,05,17.60
2020,04,15,19,06,17.60
2020,04,15,19,07,17.60
2020,04,15,19,08,17.60
2020,04,15,19,09,17.60
2020,04,15,19,10,17.60
2020,04,15,19,11,17.60
2020,04,15,19,12,17.50
2020,04,15,19,13,17.50
2020,04,15,19,14,17.50
2020,04,15,19,15,17.50
2020,04,15,19,16,17.40
2020,04,15,19,17,17.40
2020,04,15,19,18,17.40
2020,04,15,19,19,17.40
2020,04,15,19,20,17.40
2020,04,15,19,21,17.40
2020,04,15,19,22,17.40
2020,04,15,19,23,17.40
2020,04,15,19,24,17.40
2020,04,15,19,25,17.30
2020,04,15,19,26,17.30
2020,04,15,19,27,17.30
2020,04,15,19,28,17.30
2020,04,15,19,29,17.30
2020,04,15,19,30,17.30
2020,04,15,19,31,17.20
2020,04,15,19,32,17.20
2020,04,15,19,33,17.20
2020,04,15,19,34,17.20
2020,04,15,19,35,17.20
2020,04,15,19,36,17.10
2020,04,15,19,37,17.10
2020,04,15,19,38,17.10
2020,04,15,19,39,17.10
2020,04,15,19,40,17.10
2020,04,15,19,41,17.10
2020,04,15,19,42,17.10
2020,04,15,19,43,17.10
2020,04,15,19,44,17.10
2020,04,15,19,45,17.00
2020,04,15,19,46,17.00
2020,04,15,19,47,16.90
2020,04,15,19,48,16.90
2020,04,15,19,49,16.80
2020,04,15,19,50,16.80
2020,04,15,19,51,16.80
2020,04,15,19,52,16.70
2020,04,15,19,53,16.70
2020,04,15,19,54,16.60
2020,04,15,19,55,16.60
2020,04,15,19,56,16.60
2020,04,15,19,57,16.60
2020,04,15,19,58,16.60
2020,04,15,19,59,16.60
2020,04,15,20,00,16.60
2020,04,15,20,01,16.60
2020,04,15,20,02,16.60
2020,04,15,20,03,16.60
2020,04,15,20,04,16.60
2020,04,15,20,05,16.60
